Home > Weather > Makassar > Past weeks

Flag for Indonesia Weather for the Past 2 Weeks in Makassar, South Sulawesi, Indonesia

Now
81 °F

Passing clouds.


Feels Like: 89 °F
Forecast: 79 / 85 °F
Wind: 2 mph from North

Location: Ujung Pandang / Hasanuddin

Current Time: Feb 10, 2016 at 12:19:14 AM

Latest Report: Feb 10, 2016 at 12:00 AM


Visibility: 5 mi

Pressure: 29.83 "Hg

Humidity: 100%

Dew point: 81 °F

Location of MakassarLocation

Historic Weather in Makassar — Graph

°F

Makassar Temperature Yesterday

Maximum temperature yesterday: 90 °F (at 10:30 AM)
Minimum temperature yesterday: 77 °F (at 2:00 AM)
Average temperature yesterday: 84 °F

High & Low Weather Summary for the Past Weeks

 TemperatureHumidityPressure
High91 °F (Jan 27, 1:00 PM)100% (Jan 25, 10:00 PM)29.98 "Hg (Jan 25, 10:00 PM)
Low75 °F (Jan 26, 6:30 AM)59% (Feb 9, 10:30 AM)29.71 "Hg (Jan 31, 2:00 PM)
Average83 °F92%29.82 "Hg
* Reported Jan 25 10:00 PM — Feb 9 10:30 PM, Makassar, Weather by CustomWeather, © 2016

Note: Actual official high and low records may vary slightly from our data, if they occured in-between our weather recording intervals... More about our weather records

Advertising

Makassar Weather History for the Previous 24 Hours

 ConditionsComfort  
Time TempWeatherWind HumidityBarometerVisibility
10:30 PM
Tue, Feb 9
82 °FPassing clouds.1 mph100%29.83 "Hg5 mi
10:00 PM82 °FPassing clouds.1 mph100%29.83 "Hg5 mi
9:00 PM84 °FPassing clouds.2 mph89%29.83 "Hg5 mi
8:00 PM84 °FPassing clouds.3 mph94%29.80 "Hg5 mi
7:30 PM84 °FPassing clouds.5 mph94%29.80 "Hg5 mi
7:00 PM86 °FPassing clouds.6 mph89%29.77 "Hg5 mi
6:00 PM88 °FPassing clouds.8 mph75%29.77 "Hg6 mi
5:30 PM90 °FPassing clouds.5 mph71%29.74 "Hg6 mi
5:00 PM88 °FPassing clouds.5 mph70%29.74 "Hg6 mi
4:00 PM90 °FPassing clouds.7 mph71%29.74 "HgN/A
3:30 PM90 °FPassing clouds.7 mph71%29.74 "HgN/A
3:00 PM90 °FPassing clouds.8 mph71%29.74 "HgN/A
2:00 PM90 °FPassing clouds.8 mph63%29.77 "HgN/A
1:30 PM90 °FPassing clouds.7 mph71%29.77 "HgN/A
1:00 PM90 °FPassing clouds.8 mph67%29.77 "HgN/A
12:30 PM90 °FPassing clouds.7 mph71%29.80 "HgN/A
12:00 PM90 °FPassing clouds.7 mph67%29.80 "HgN/A
11:30 AM90 °FPassing clouds.7 mph63%29.83 "HgN/A
11:00 AM90 °FPassing clouds.7 mph67%29.83 "HgN/A
10:30 AM90 °FPassing clouds.7 mph59%29.83 "HgN/A
10:00 AM88 °FPassing clouds.5 mph62%29.83 "HgN/A
9:30 AM88 °FPassing clouds.3 mph70%29.86 "HgN/A
9:00 AM86 °FPassing clouds.3 mph79%29.86 "HgN/A
8:00 AM81 °FPassing clouds.5 mph100%29.83 "HgN/A
7:30 AM79 °FPassing clouds.5 mph100%29.83 "HgN/A
7:00 AM79 °FPassing clouds.3 mph100%29.83 "Hg6 mi
6:30 AM79 °FPassing clouds.2 mph100%29.80 "Hg6 mi
6:00 AM77 °FPassing clouds.2 mph100%29.80 "Hg6 mi
5:30 AM77 °FPassing clouds.No wind100%29.80 "Hg4 mi
5:00 AM77 °FPassing clouds.3 mph100%29.80 "Hg4 mi
4:30 AM77 °FLight rain. Passing clouds.5 mph100%29.80 "Hg3 mi
4:00 AM77 °FLight rain. Passing clouds.5 mph100%29.80 "Hg3 mi
3:30 AM77 °FLight rain. Passing clouds.5 mph100%29.80 "Hg3 mi
3:00 AM77 °FLight rain. Passing clouds.6 mph100%29.80 "Hg3 mi
2:30 AM77 °FLight rain. Passing clouds.6 mph100%29.80 "Hg3 mi
2:00 AM77 °FRain. Passing clouds.9 mph100%29.80 "Hg2 mi
1:00 AM79 °FLight rain. Passing clouds.5 mph100%29.83 "Hg4 mi
12:30 AM79 °FLight rain. Passing clouds.6 mph100%29.83 "Hg4 mi
12:00 AM79 °FPassing clouds.2 mph100%29.83 "Hg5 mi
Weather by CustomWeather, © 2016

See weather overviewHow to use our weather pages